Current Weather Conditions: station 63103

sailwx.info

Wind from 020 at 9 knots

Wave height 0.4 meters (1 feet), 4 second period

Air temperature 16.1° C

Last reported at 2014-Jul-28 05:00 UTC.
Time now 2014-Jul-28 06:26 UTC

Location: N 61°12' E 001°06'.
View on Google Maps.

See reports from other nearby stations

  
Tides and Currents Weather Stations Pressure Air Temp Water Temp Dewpoint Dewpoint Depression Visibility Wind Speed Wind Dir Waves Ship Positions
date/time (UTC)wind fromknots sea level pressurealtimeterstation pressurevisibilityair tempwater tempwave heightnotes
2014-Jul-28 05:00 020 9 16.1 0.4
2014-Jul-28 04:00 360 8 16.0 0.4
2014-Jul-28 03:00 360 8 15.9 0.4
2014-Jul-28 02:00 020 6 15.8 0.4
2014-Jul-28 01:00 020 7 15.7 0.4
2014-Jul-27 23:00 010 6 15.9 0.4
2014-Jul-27 22:00 020 8 16.1 0.4
2014-Jul-27 21:00 050 9 17.1 0.4
2014-Jul-27 20:00 050 11 18.3 0.4
2014-Jul-27 19:00 030 12 19.1 0.4
2014-Jul-27 18:00 030 11 19.7 0.4
2014-Jul-27 17:00 350 9 18.7 0.4
2014-Jul-27 16:00 300 5 19.1 0.4
2014-Jul-27 15:00 290 4 19.7 0.4
2014-Jul-27 14:00 20.6 0.4
2014-Jul-27 13:00 20.0 0.4
2014-Jul-27 12:00 180 4 17.8 0.4
2014-Jul-27 11:00 120 7 18.9 0.4
2014-Jul-27 10:00 110 10 19.0 0.4
2014-Jul-27 09:00 100 9 18.9 0.4
2014-Jul-27 08:00 080 9 18.4 0.4
2014-Jul-27 07:00 090 5 17.7 0.4
2014-Jul-27 06:00 140 4 17.7 0.4
2014-Jul-27 05:00 140 10 17.4 0.4
2014-Jul-27 04:00 140 9 17.6 0.4
2014-Jul-27 03:00 130 9 17.9 0.4
2014-Jul-27 02:00 120 10 18.4 0.4
2014-Jul-27 01:00 110 11 18.1 0.4
2014-Jul-27 00:00 110 10 18.0 0.4
2014-Jul-26 23:00 110 9 18.4 0.5
2014-Jul-26 22:00 110 8 17.9 0.4
2014-Jul-26 21:00 110 7 17.8 0.5
2014-Jul-26 20:00 110 5 18.3 0.5
2014-Jul-26 19:00 160 3 18.2 0.4
2014-Jul-26 18:00 170 2 18.0 0.5
2014-Jul-26 17:00 170 2 17.9 0.5
2014-Jul-26 16:00 190 4 16.9 0.5
2014-Jul-26 15:00 200 6 16.1 0.6
2014-Jul-26 14:00 210 9 15.4 0.6
2014-Jul-26 13:00 190 11 15.3 0.6
2014-Jul-26 12:00 180 12 14.8 0.6
2014-Jul-26 11:00 170 10 14.7 0.6
2014-Jul-26 10:00 180 7 14.9 0.6
2014-Jul-26 09:00 180 10 16.4 0.5
2014-Jul-26 08:00 180 9 17.0 0.5
2014-Jul-26 06:00 170 8 15.8 0.5